Location: Coupvray
(48.8929°N, 2.7967°E)
Time: 23:47:10
(UTC+00:00)

Cosmos 1241 Rocket - Pass Details

Date: 30 October 2020
Orbit: 929 x 1018 km, 65.8° (Epoch: 28 November)

Event Time Altitude Azimuth Distance (km) Brightness Sun altitude
Rises 18:16:14 0° 263° (W) 3,662 9.2 -17.7°
Reaches altitude 10° 18:19:13 10° 275° (W) 2,732 8.1 -18.2°
Maximum altitude 18:24:34 27° 332° (NNW) 1,811 6.2 -19.1°
Drops below altitude 10° 18:30:02 10° 29° (NNE) 2,788 6.6 -20.0°
Enters shadow 18:30:32 - 32° (NNE) 2,935 6.7 -20.1°
